Track STARLINK-4375 now! 10-day predictions STARLINK-4375 is classified as:
1 53192U 22084D 22221.16667824 -.01063508 00000-0 -15653-1 0 9991 2 53192 97.6554 280.1877 0001823 105.7632 38.2461 15.57949600 3271